RYR7R LEZL-LEAL

Flight info

Callsign RYR7R
Flight time 0h 41m
Altitude 34000
Route BUDIT M445 ETURA T252 XEBAR M985 ASTRO
Aircraft B738/M-SDE2E3FGHIRWXY/LB1

Departure

Time 2026-04-21 10:21
Airport Seville Airport (LEZL)

Arrival

Time 2026-04-21 11:02
Airport Alicante-Elche Miguel Hernández Airport (LEAL)
Time Latitude Longitude Altitude Speed Heading
2026-04-21 09:59 37.42252 -5.89898 99 ft 0 kts 345°
2026-04-21 10:14 37.42245 -5.89896 99 ft 3 kts 345°
2026-04-21 10:14 37.42226 -5.89889 100 ft 3 kts 345°
2026-04-21 10:15 37.42208 -5.89883 101 ft 3 kts 335°
2026-04-21 10:15 37.42194 -5.89871 100 ft 3 kts 292°
2026-04-21 10:15 37.42193 -5.89852 100 ft 3 kts 240°
2026-04-21 10:15 37.42202 -5.89835 99 ft 1 kts 225°
2026-04-21 10:16 37.42212 -5.89823 98 ft 3 kts 225°
2026-04-21 10:16 37.42216 -5.89817 100 ft 0 kts 225°
2026-04-21 10:17 37.42209 -5.89827 99 ft 3 kts 225°
2026-04-21 10:17 37.42176 -5.89869 100 ft 10 kts 225°
2026-04-21 10:17 37.42108 -5.89955 105 ft 17 kts 223°
2026-04-21 10:18 37.42044 -5.90065 106 ft 8 kts 257°
2026-04-21 10:18 37.42002 -5.90098 108 ft 8 kts 196°
2026-04-21 10:18 37.41979 -5.90154 109 ft 9 kts 272°
2026-04-21 10:18 37.41979 -5.90271 109 ft 18 kts 269°
2026-04-21 10:19 37.41979 -5.90460 107 ft 24 kts 270°
2026-04-21 10:19 37.41978 -5.90680 107 ft 26 kts 269°
2026-04-21 10:19 37.41972 -5.90917 101 ft 28 kts 258°
2026-04-21 10:19 37.41883 -5.91126 103 ft 26 kts 238°
2026-04-21 10:20 37.41789 -5.91151 102 ft 12 kts 131°
2026-04-21 10:20 37.41783 -5.91042 104 ft 23 kts 86°
2026-04-21 10:20 37.41790 -5.90504 108 ft 98 kts 89°
2026-04-21 10:20 37.41807 -5.89354 129 ft 159 kts 91°
2026-04-21 10:21 37.41766 -5.88359 385 ft 178 kts 94°
2026-04-21 10:21 37.41628 -5.86193 1324 ft 191 kts 94°
2026-04-21 10:21 37.41628 -5.85085 2040 ft 190 kts 88°
2026-04-21 10:21 37.41703 -5.83315 2537 ft 210 kts 91°
2026-04-21 10:22 37.41875 -5.81437 2920 ft 228 kts 82°
2026-04-21 10:22 37.42202 -5.79400 3242 ft 243 kts 81°
2026-04-21 10:22 37.42549 -5.77294 3878 ft 247 kts 81°
2026-04-21 10:22 37.42994 -5.75217 4495 ft 253 kts 72°
2026-04-21 10:23 37.43681 -5.73158 5155 ft 256 kts 68°
2026-04-21 10:23 37.44450 -5.71048 5549 ft 276 kts 67°
2026-04-21 10:23 37.45267 -5.68827 6266 ft 282 kts 68°
2026-04-21 10:23 37.46102 -5.66551 6951 ft 289 kts 68°
2026-04-21 10:24 37.46936 -5.64238 7714 ft 292 kts 68°
2026-04-21 10:24 37.47772 -5.61880 8435 ft 296 kts 68°
2026-04-21 10:24 37.48617 -5.59484 9127 ft 303 kts 68°
2026-04-21 10:24 37.49472 -5.57051 9878 ft 306 kts 67°
2026-04-21 10:25 37.50347 -5.54552 10278 ft 321 kts 67°
2026-04-21 10:25 37.51279 -5.51884 10468 ft 344 kts 67°
2026-04-21 10:25 37.52262 -5.49063 10812 ft 358 kts 67°
2026-04-21 10:25 37.53272 -5.46163 11440 ft 362 kts 67°
2026-04-21 10:26 37.54287 -5.43248 12147 ft 364 kts 67°
2026-04-21 10:26 37.55310 -5.40305 12808 ft 369 kts 67°
2026-04-21 10:26 37.56331 -5.37367 13455 ft 373 kts 66°
2026-04-21 10:26 37.57376 -5.34356 14057 ft 376 kts 67°
2026-04-21 10:27 37.58431 -5.31312 14687 ft 379 kts 67°
2026-04-21 10:27 37.59490 -5.28254 15326 ft 382 kts 67°
2026-04-21 10:27 37.60505 -5.25141 15935 ft 385 kts 75°
2026-04-21 10:27 37.60929 -5.21809 16508 ft 386 kts 86°
2026-04-21 10:28 37.61148 -5.18416 17112 ft 389 kts 87°
2026-04-21 10:28 37.61353 -5.14998 17696 ft 393 kts 87°
2026-04-21 10:28 37.61564 -5.11545 18283 ft 396 kts 87°
2026-04-21 10:28 37.61784 -5.08073 18805 ft 399 kts 87°
2026-04-21 10:29 37.62011 -5.04606 19315 ft 402 kts 87°
2026-04-21 10:29 37.62248 -5.01080 19848 ft 405 kts 87°
2026-04-21 10:29 37.62489 -4.97533 20361 ft 407 kts 87°
2026-04-21 10:29 37.62733 -4.93960 20854 ft 411 kts 87°
2026-04-21 10:30 37.62980 -4.90348 21333 ft 414 kts 87°
2026-04-21 10:30 37.63226 -4.86724 21812 ft 417 kts 87°
2026-04-21 10:30 37.63475 -4.83059 22283 ft 420 kts 87°
2026-04-21 10:30 37.63723 -4.79379 22750 ft 423 kts 87°
2026-04-21 10:31 37.63973 -4.75656 23215 ft 426 kts 87°
2026-04-21 10:31 37.64223 -4.71920 23623 ft 429 kts 87°
2026-04-21 10:31 37.64473 -4.68154 23998 ft 431 kts 87°
2026-04-21 10:31 37.64722 -4.64367 24378 ft 434 kts 87°
2026-04-21 10:32 37.64970 -4.60606 24757 ft 436 kts 87°
2026-04-21 10:32 37.65222 -4.56780 25128 ft 438 kts 87°
2026-04-21 10:32 37.65472 -4.52942 25482 ft 441 kts 87°
2026-04-21 10:32 37.65723 -4.49073 25828 ft 443 kts 87°
2026-04-21 10:33 37.65974 -4.45192 26177 ft 445 kts 87°
2026-04-21 10:33 37.66225 -4.41289 26512 ft 447 kts 87°
2026-04-21 10:33 37.66476 -4.37360 26845 ft 450 kts 87°
2026-04-21 10:33 37.66727 -4.33417 27163 ft 452 kts 87°
2026-04-21 10:34 37.66977 -4.29450 27494 ft 454 kts 87°
2026-04-21 10:34 37.67227 -4.25469 27808 ft 456 kts 87°
2026-04-21 10:34 37.67477 -4.21470 28116 ft 458 kts 87°
2026-04-21 10:34 37.67727 -4.17456 28409 ft 460 kts 87°
2026-04-21 10:35 37.67977 -4.13410 28704 ft 462 kts 87°
2026-04-21 10:35 37.68226 -4.09350 29000 ft 464 kts 87°
2026-04-21 10:35 37.68473 -4.05324 29274 ft 466 kts 87°
2026-04-21 10:35 37.68724 -4.01184 29557 ft 468 kts 87°
2026-04-21 10:36 37.68972 -3.97080 29886 ft 469 kts 87°
2026-04-21 10:36 37.69217 -3.93023 30244 ft 468 kts 87°
2026-04-21 10:36 37.69461 -3.88936 30601 ft 466 kts 87°
2026-04-21 10:36 37.69704 -3.84843 30887 ft 467 kts 87°
2026-04-21 10:37 37.69945 -3.80757 31157 ft 467 kts 87°
2026-04-21 10:37 37.70185 -3.76672 31454 ft 467 kts 88°
2026-04-21 10:37 37.70424 -3.72583 31763 ft 466 kts 88°
2026-04-21 10:37 37.70660 -3.68511 32060 ft 465 kts 88°
2026-04-21 10:38 37.70896 -3.64435 32305 ft 466 kts 88°
2026-04-21 10:38 37.71129 -3.60353 32580 ft 465 kts 88°
2026-04-21 10:38 37.71362 -3.56265 32867 ft 465 kts 88°
2026-04-21 10:38 37.71589 -3.52242 33139 ft 465 kts 88°
2026-04-21 10:39 37.71817 -3.48164 33397 ft 465 kts 88°
2026-04-21 10:39 37.72045 -3.44083 33672 ft 465 kts 88°
2026-04-21 10:39 37.72271 -3.40009 33911 ft 465 kts 88°
2026-04-21 10:40 37.72722 -3.31782 33904 ft 473 kts 88°
2026-04-21 10:40 37.73176 -3.23426 33908 ft 480 kts 88°
2026-04-21 10:41 37.73629 -3.14952 33917 ft 487 kts 88°
2026-04-21 10:41 37.74081 -3.06423 33904 ft 489 kts 88°
2026-04-21 10:42 37.74529 -2.97833 33919 ft 490 kts 88°
2026-04-21 10:42 37.74971 -2.89253 33928 ft 490 kts 88°
2026-04-21 10:43 37.75848 -2.80719 33920 ft 492 kts 70°
2026-04-21 10:43 37.77362 -2.76856 33907 ft 492 kts 54°
2026-04-21 10:43 37.79583 -2.73585 33951 ft 490 kts 45°
2026-04-21 10:44 37.84386 -2.67430 33928 ft 492 kts 44°
2026-04-21 10:44 37.89168 -2.61232 33934 ft 492 kts 45°
2026-04-21 10:45 37.93868 -2.54981 33932 ft 492 kts 46°
2026-04-21 10:45 37.98474 -2.48835 33915 ft 467 kts 45°
2026-04-21 10:45 38.00677 -2.45894 33910 ft 453 kts 45°
2026-04-21 10:46 38.02818 -2.43033 33920 ft 441 kts 45°
2026-04-21 10:46 38.04922 -2.40219 33607 ft 437 kts 45°
2026-04-21 10:46 38.06998 -2.37441 33325 ft 430 kts 45°
2026-04-21 10:46 38.09049 -2.34693 32964 ft 427 kts 45°
2026-04-21 10:47 38.11084 -2.31964 32591 ft 424 kts 45°
2026-04-21 10:47 38.13111 -2.29244 32219 ft 422 kts 45°
2026-04-21 10:47 38.15118 -2.26549 31861 ft 419 kts 45°
2026-04-21 10:47 38.17064 -2.23869 31460 ft 418 kts 50°
2026-04-21 10:48 38.18712 -2.20816 30948 ft 421 kts 58°
2026-04-21 10:48 38.20202 -2.17613 30559 ft 419 kts 59°
2026-04-21 10:48 38.21649 -2.14411 30224 ft 416 kts 59°
2026-04-21 10:48 38.23082 -2.11228 29897 ft 413 kts 59°
2026-04-21 10:49 38.24512 -2.08073 29503 ft 410 kts 59°
2026-04-21 10:49 38.25936 -2.04954 29121 ft 407 kts 59°
2026-04-21 10:49 38.27359 -2.01856 28640 ft 401 kts 58°
2026-04-21 10:49 38.28765 -1.98805 28095 ft 397 kts 58°
2026-04-21 10:50 38.30161 -1.95783 27480 ft 395 kts 58°
2026-04-21 10:50 38.31555 -1.92766 26872 ft 393 kts 58°
2026-04-21 10:50 38.32805 -1.89695 26288 ft 391 kts 69°
2026-04-21 10:50 38.33520 -1.86377 25743 ft 388 kts 80°
2026-04-21 10:51 38.33773 -1.83015 25226 ft 384 kts 90°
2026-04-21 10:51 38.33747 -1.79633 24698 ft 381 kts 91°
2026-04-21 10:51 38.33702 -1.76268 24166 ft 379 kts 91°
2026-04-21 10:51 38.33656 -1.72909 23588 ft 378 kts 91°
2026-04-21 10:52 38.33615 -1.69599 22937 ft 377 kts 91°
2026-04-21 10:52 38.33577 -1.66253 22276 ft 376 kts 91°
2026-04-21 10:52 38.33543 -1.62922 21630 ft 375 kts 91°
2026-04-21 10:52 38.33511 -1.59596 20998 ft 374 kts 91°
2026-04-21 10:53 38.33480 -1.56289 20368 ft 373 kts 91°
2026-04-21 10:53 38.33448 -1.52992 19759 ft 371 kts 91°
2026-04-21 10:53 38.33416 -1.49705 19120 ft 371 kts 91°
2026-04-21 10:53 38.33384 -1.46421 18495 ft 370 kts 91°
2026-04-21 10:54 38.33350 -1.43141 17824 ft 370 kts 91°
2026-04-21 10:54 38.33316 -1.39870 17118 ft 369 kts 91°
2026-04-21 10:54 38.33281 -1.36642 16446 ft 368 kts 91°
2026-04-21 10:54 38.33245 -1.33390 15765 ft 366 kts 91°
2026-04-21 10:55 38.33207 -1.30154 15098 ft 365 kts 91°
2026-04-21 10:55 38.33170 -1.26928 14465 ft 364 kts 91°
2026-04-21 10:55 38.33133 -1.23707 13828 ft 362 kts 91°
2026-04-21 10:55 38.33093 -1.20509 13127 ft 360 kts 91°
2026-04-21 10:56 38.33052 -1.17324 12436 ft 358 kts 91°
2026-04-21 10:56 38.33013 -1.14150 11765 ft 356 kts 91°
2026-04-21 10:56 38.32973 -1.11006 11106 ft 353 kts 91°
2026-04-21 10:56 38.32932 -1.07894 10440 ft 350 kts 91°
2026-04-21 10:57 38.32891 -1.04806 9821 ft 347 kts 91°
2026-04-21 10:57 38.32852 -1.02008 9177 ft 343 kts 91°
2026-04-21 10:57 38.32810 -0.98981 8503 ft 340 kts 91°
2026-04-21 10:57 38.32768 -0.95984 7837 ft 337 kts 91°
2026-04-21 10:58 38.32727 -0.93016 7186 ft 334 kts 91°
2026-04-21 10:58 38.32684 -0.90102 6541 ft 332 kts 91°
2026-04-21 10:58 38.32580 -0.87181 5893 ft 330 kts 96°
2026-04-21 10:58 38.32248 -0.84302 5225 ft 327 kts 100°
2026-04-21 10:59 38.31819 -0.81470 4610 ft 324 kts 101°
2026-04-21 10:59 38.31412 -0.78714 4361 ft 308 kts 100°
2026-04-21 10:59 38.31046 -0.76106 4226 ft 290 kts 100°
2026-04-21 10:59 38.30704 -0.73659 4188 ft 270 kts 100°
2026-04-21 11:00 38.30388 -0.71407 4195 ft 245 kts 100°
2026-04-21 11:00 38.30114 -0.69356 3787 ft 230 kts 99°
2026-04-21 11:00 38.29870 -0.67332 3065 ft 231 kts 99°
2026-04-21 11:00 38.29566 -0.65338 2337 ft 228 kts 103°
2026-04-21 11:01 38.29255 -0.63378 1579 ft 227 kts 101°
2026-04-21 11:01 38.28978 -0.61421 938 ft 221 kts 101°
2026-04-21 11:01 38.28731 -0.59543 456 ft 207 kts 99°
2026-04-21 11:02 38.28283 -0.56311 114 ft 144 kts 100°
2026-04-21 11:02 38.28169 -0.55480 94 ft 75 kts 99°
2026-04-21 11:02 38.28130 -0.54953 73 ft 44 kts 75°
2026-04-21 11:02 38.28213 -0.54729 61 ft 19 kts 15°
2026-04-21 11:03 38.28256 -0.54770 68 ft 7 kts 279°
2026-04-21 11:03 38.28260 -0.54833 72 ft 7 kts 277°
2026-04-21 11:03 38.28268 -0.54905 72 ft 10 kts 278°
2026-04-21 11:03 38.28279 -0.55005 76 ft 13 kts 278°
2026-04-21 11:04 38.28299 -0.55131 87 ft 16 kts 281°
2026-04-21 11:04 38.28333 -0.55206 86 ft 0 kts 348°
2026-04-21 11:04 38.28343 -0.55206 88 ft 11 kts
2026-04-21 11:04 38.28430 -0.55137 89 ft 17 kts 24°
2026-04-21 11:05 38.28498 -0.55123 87 ft 0 kts
2026-04-21 11:05 38.28499 -0.55123 87 ft 0 kts
2026-04-21 11:05 38.28500 -0.55123 89 ft 0 kts
2026-04-21 11:05 38.28502 -0.55122 89 ft 0 kts
2026-04-21 11:06 38.28503 -0.55122 88 ft 0 kts